User: anonymous   Login
Location: La Vergne
(36.0160°N, 86.5820°W)
Time: 04:25:14
(UTC-05:00)
Language:

Cosmos 1703 Rocket - Orbit

View from above orbital plane
View from above orbital plane
View from above satellite
View from above satellite

Ground track
Ground track

The orbit data is extracted from the following two-line orbital elements,

1 16263U 85108B   15090.18410709  .00000602  00000-0  71457-4 0  9991
2 16263 082.5049 153.1446 0021509 129.5988 286.4926 14.82706376584492
Epoch (UTC): 31 March 2015 04:25:06
Eccentricity: 0.0021509
inclination: 82.5049°
perigee height: 606 km
apogee height: 636 km
right ascension of ascending node: 153.1446°
argument of perigee: 129.5988°
revolutions per day: 14.82706376
mean anomaly at epoch: 286.4926°
orbit number at epoch: 58449

The dashed part of the orbit path shows where the satellite is in the earth's shadow,  

DLR